Starlink 34994

operational
NORAD ID: 65924 Int'l Des: 2025-225 Owner: SPXS Country: US Constellation: starlink
LEOCIRCULAR

Über Starlink 34994

Beschreibung wird geladen...

Live-Position

3D-Globus wird geladen...

Nächste Überflüge

Höhenverlauf

Altitude vs Time

uPlot chart will show altitude changes over time

Zweizeiliger Elementsatz

1 65924U 25225Q 26061.52054493 .00024644 00000-0 84140-3 0 9999
2 65924 53.1611 198.7525 0001117 57.8165 302.2944 15.30200215 23316
Epoch: 2. März 2026 • Age: 43 hours

Aktueller Status

Höhe 477.8 km
Geschwindigkeit 7.63 km/s
Subsatellitenpunkt 39.68°N, 152.01°E
Startdatum 8. Okt. 2025
Alter 0.3 years
Typ internet

Technische Details

Klassifizierung Payload
Masse 575.00 kg
Trockenmasse 530.00 kg
Gesamtmasse 575.00 kg
Länge 0.30 m
Durchmesser 4.10 m
Spannweite 29.00 m
Form Box + pan
Hersteller SPXS
Bus-Typ Starlink V2MO
Phasenstatus In Orbit
Besitzer/Staat SPXS/US

Große Konstellationen

Loading constellations...